Weather History for Lapeer, MI

Change the Weather History Date:

Tuesday, May 21, 2013

  Actual Average (KFNT) Record (KFNT)
Temperature  
Mean Temperature 72 °F 58 °F  
Max Temperature 82 °F 70 °F 93 °F (1921)
Min Temperature 61 °F 47 °F 31 °F (1954)
Degree Days  
Heating Degree Days 0 8  
Month to date heating degree days 218  
Since 1 July heating degree days 6825  
Cooling Degree Days 6 1  
Month to date cooling degree days 13  
Year to date cooling degree days 17  
Growing Degree Days 22 (Base 50)    
Moisture  
Dew Point 61 °F    
Average Humidity 70    
Maximum Humidity 97    
Minimum Humidity 42    
Precipitation  
Precipitation 0.00 in 0.11 in 1.03 in (2004)
Month to date precipitation 2.08  
Year to date precipitation 9.99  
Snow  
Snow 0.00 in 0.00 in T in ()
Month to date snowfall 0.0  
Since 1 July snowfall 47.4  
Snow Depth -    
Sea Level Pressure  
Sea Level Pressure 29.78 in    
Wind  
Wind Speed 4 mph (SW)    
Max Wind Speed 17 mph    
Max Gust Speed 28 mph    
Visibility 10 miles    
Events      
T = Trace of Precipitation, MM = Missing Value Source: NWS Daily Summary

Daily Weather History Graph

Daily Weather History Graph

Search for Another Location

Airport:

Trip Planner

Search our weather history database for the weather conditions in past years. The results will help you decide how hot, cold, wet, or windy it might be!

Date:

Astronomy

May. 21, 2013 Rise Set
Actual Time 6:03 AM EDT 8:56 PM EDT
Civil Twilight 5:30 AM EDT 9:29 PM EDT
Nautical Twilight 4:48 AM EDT 10:12 PM EDT
Astronomical Twilight 3:58 AM EDT 11:01 PM EDT
Moon 5:03 PM EDT (5/21) 3:37 AM EDT (5/21)
Length of Visible Light 15h 59m
Length of Day
14h 52m
Waxing Gibbous, 84% of the Moon is Illuminated
May 21
Waxing Gibbous
May 25
Full
May 31
Last Quarter
Jun 8
New
Jun 16
First Quarter

Hourly Weather History & Observations

Time (EDT) Temp. Heat Index Dew Point Humidity Pressure Visibility Wind Dir Wind Speed Gust Speed Precip Events Conditions
12:14 AM 64.4 °F - 61.7 °F 91% 29.83 in 10.0 mi Calm Calm - N/A   Clear
12:33 AM 63.9 °F - 61.5 °F 92% 29.83 in 10.0 mi Calm Calm - N/A   Clear
12:54 AM 64.2 °F - 61.7 °F 91% 29.84 in 10.0 mi Calm Calm - N/A   Clear
1:14 AM 63.1 °F - 61.3 °F 94% 29.83 in 10.0 mi Calm Calm - N/A   Clear
1:33 AM 62.6 °F - 61.3 °F 96% 29.83 in 7.0 mi Calm Calm - N/A   Clear
1:54 AM 62.4 °F - 61.3 °F 96% 29.83 in 10.0 mi Calm Calm - N/A   Clear
2:13 AM 61.9 °F - 61.2 °F 97% 29.82 in 7.0 mi Calm Calm - N/A   Clear
2:34 AM 62.1 °F - 61.2 °F 97% 29.82 in 7.0 mi Calm Calm - N/A   Clear
2:53 AM 61.9 °F - 61.0 °F 97% 29.80 in 5.0 mi Calm Calm - N/A   Clear
3:13 AM 62.1 °F - 61.0 °F 96% 29.81 in 7.0 mi Calm Calm - N/A   Clear
3:33 AM 61.9 °F - 61.0 °F 97% 29.80 in 7.0 mi Calm Calm - N/A   Clear
3:54 AM 62.2 °F - 61.2 °F 96% 29.80 in 7.0 mi Calm Calm - N/A   Clear
4:13 AM 64.6 °F - 62.8 °F 94% 29.80 in 7.0 mi SSW 5.8 mph - N/A   Clear
4:34 AM 67.1 °F - 63.5 °F 88% 29.80 in 10.0 mi South 5.8 mph - N/A   Clear
4:53 AM 67.1 °F - 63.5 °F 88% 29.79 in 10.0 mi South 6.9 mph - N/A   Clear
5:14 AM 67.8 °F - 63.7 °F 87% 29.80 in 10.0 mi SSW 5.8 mph - N/A   Mostly Cloudy
5:33 AM 68.2 °F - 64.4 °F 88% 29.80 in 10.0 mi South 6.9 mph - N/A   Mostly Cloudy
5:54 AM 69.3 °F - 64.6 °F 85% 29.79 in 10.0 mi South 4.6 mph - N/A   Scattered Clouds
6:14 AM 68.9 °F - 64.8 °F 87% 29.80 in 7.0 mi South 4.6 mph - N/A   Mostly Cloudy
6:33 AM 70.0 °F - 65.3 °F 85% 29.80 in 10.0 mi SSW 8.1 mph - N/A   Overcast
6:54 AM 71.1 °F - 65.3 °F 82% 29.81 in 10.0 mi West 9.2 mph - N/A   Overcast
7:13 AM 70.7 °F - 63.9 °F 79% 29.80 in 10.0 mi West 4.6 mph - N/A   Mostly Cloudy
7:34 AM 69.8 °F - 64.8 °F 84% 29.80 in 10.0 mi Calm Calm - N/A   Scattered Clouds
7:54 AM 68.9 °F - 64.6 °F 86% 29.79 in 10.0 mi Calm Calm - N/A   Clear
8:13 AM 70.7 °F - 65.1 °F 82% 29.78 in 10.0 mi SSE 4.6 mph - N/A   Clear
8:34 AM 72.0 °F - 63.9 °F 76% 29.76 in 10.0 mi SE 5.8 mph - N/A   Clear
8:53 AM 72.5 °F - 63.1 °F 72% 29.75 in 10.0 mi SSE 6.9 mph - N/A   Clear
9:14 AM 73.2 °F - 65.8 °F 78% 29.78 in 10.0 mi SW 4.6 mph - N/A   Clear
9:33 AM 74.1 °F - 66.2 °F 76% 29.79 in 10.0 mi SW 5.8 mph - N/A   Clear
9:53 AM 75.4 °F - 65.5 °F 71% 29.80 in 10.0 mi SSW 6.9 mph - N/A   Clear
10:14 AM 76.8 °F - 66.4 °F 70% 29.80 in 10.0 mi SW 10.4 mph 16.1 mph N/A   Clear
10:33 AM 77.4 °F - 65.7 °F 67% 29.80 in 10.0 mi SW 10.4 mph 17.3 mph N/A   Scattered Clouds
10:54 AM 77.0 °F - 63.1 °F 62% 29.80 in 10.0 mi WSW 12.7 mph 21.9 mph N/A   Mostly Cloudy
11:14 AM 77.4 °F - 61.2 °F 57% 29.80 in 10.0 mi WSW 13.8 mph 21.9 mph N/A   Scattered Clouds
11:33 AM 78.3 °F - 61.5 °F 56% 29.80 in 10.0 mi West 10.4 mph - N/A   Mostly Cloudy
11:54 AM 78.6 °F - 60.8 °F 54% 29.80 in 10.0 mi West 11.5 mph - N/A   Scattered Clouds
12:13 PM 78.4 °F - 61.0 °F 55% 29.79 in 10.0 mi West 9.2 mph - N/A   Mostly Cloudy
12:33 PM 78.4 °F - 61.0 °F 55% 29.79 in 10.0 mi West 5.8 mph - N/A   Mostly Cloudy
12:53 PM 79.0 °F - 60.8 °F 54% 29.78 in 10.0 mi SW 11.5 mph - N/A   Scattered Clouds
1:13 PM 78.6 °F - 60.6 °F 54% 29.77 in 10.0 mi SW 10.4 mph - N/A   Mostly Cloudy
1:34 PM 79.7 °F - 59.7 °F 50% 29.76 in 10.0 mi SW 8.1 mph - N/A   Scattered Clouds
1:53 PM 81.5 °F 81.8 °F 59.2 °F 47% 29.76 in 10.0 mi WSW 13.8 mph 19.6 mph N/A   Clear
2:14 PM 82.0 °F 82.2 °F 59.4 °F 46% 29.75 in 10.0 mi SW 12.7 mph 18.4 mph N/A   Mostly Cloudy
2:33 PM 79.7 °F - 55.9 °F 44% 29.76 in 10.0 mi West 17.3 mph 27.6 mph N/A   Overcast
2:53 PM 78.8 °F - 56.8 °F 47% 29.76 in 10.0 mi WSW 11.5 mph - N/A   Overcast
3:14 PM 79.0 °F - 58.5 °F 49% 29.76 in 10.0 mi WSW 8.1 mph - N/A   Mostly Cloudy
3:33 PM 79.7 °F - 58.6 °F 48% 29.75 in 10.0 mi SW 6.9 mph - N/A   Scattered Clouds
3:54 PM 81.1 °F 81.6 °F 59.5 °F 48% 29.75 in 10.0 mi WSW 8.1 mph - N/A   Scattered Clouds
4:13 PM 81.9 °F 81.9 °F 58.5 °F 45% 29.75 in 10.0 mi SW 15.0 mph 20.7 mph N/A   Mostly Cloudy
4:33 PM 81.9 °F 81.7 °F 57.0 °F 43% 29.74 in 10.0 mi SW 11.5 mph - N/A   Scattered Clouds
4:54 PM 82.4 °F 82.0 °F 57.4 °F 42% 29.74 in 10.0 mi West 12.7 mph 18.4 mph N/A   Scattered Clouds
5:13 PM 81.1 °F 81.2 °F 57.0 °F 44% 29.74 in 10.0 mi SW 13.8 mph 18.4 mph N/A   Scattered Clouds
5:34 PM 82.4 °F 82.0 °F 57.4 °F 42% 29.74 in 10.0 mi WSW 12.7 mph 19.6 mph N/A   Scattered Clouds
5:53 PM 82.6 °F 82.2 °F 57.2 °F 42% 29.74 in 10.0 mi WSW 15.0 mph 19.6 mph N/A   Mostly Cloudy
6:14 PM 82.4 °F 82.2 °F 57.7 °F 43% 29.74 in 10.0 mi WSW 10.4 mph 16.1 mph N/A   Mostly Cloudy
6:33 PM 81.9 °F 81.8 °F 58.1 °F 44% 29.74 in 10.0 mi West 12.7 mph 18.4 mph N/A   Mostly Cloudy
6:53 PM 81.5 °F 81.6 °F 58.3 °F 45% 29.74 in 10.0 mi West 6.9 mph - N/A   Scattered Clouds
7:14 PM 81.5 °F 81.7 °F 59.0 °F 46% 29.74 in 10.0 mi West 5.8 mph - N/A   Clear
7:33 PM 80.6 °F 81.1 °F 59.2 °F 48% 29.74 in 10.0 mi WSW 11.5 mph - N/A   Clear
7:54 PM 80.2 °F 80.9 °F 59.4 °F 49% 29.75 in 10.0 mi West 6.9 mph - N/A   Clear
8:13 PM 79.2 °F - 59.7 °F 51% 29.75 in 10.0 mi WSW 8.1 mph - N/A   Clear
8:34 PM 77.9 °F - 60.4 °F 55% 29.75 in 10.0 mi West 3.5 mph - N/A   Clear
8:53 PM 75.6 °F - 61.5 °F 62% 29.74 in 10.0 mi Calm Calm - N/A   Clear
9:13 PM 72.1 °F - 63.0 °F 73% 29.74 in 10.0 mi Calm Calm - N/A   Clear
9:34 PM 69.6 °F - 62.1 °F 77% 29.74 in 10.0 mi Calm Calm - N/A   Clear
9:53 PM 68.0 °F - 63.0 °F 84% 29.74 in 10.0 mi Calm Calm - N/A   Clear
10:14 PM 67.1 °F - 62.6 °F 85% 29.75 in 10.0 mi Calm Calm - N/A   Clear
10:33 PM 65.7 °F - 62.4 °F 89% 29.75 in 10.0 mi Calm Calm - N/A   Clear
10:54 PM 65.8 °F - 62.6 °F 89% 29.76 in 10.0 mi Calm Calm - N/A   Clear
11:14 PM 63.5 °F - 61.3 °F 93% 29.75 in 10.0 mi Calm Calm - N/A   Clear
11:33 PM 64.2 °F - 61.9 °F 92% 29.75 in 10.0 mi Calm Calm - N/A   Clear
11:54 PM 63.9 °F - 62.1 °F 94% 29.75 in 10.0 mi Calm Calm - N/A   Clear